Regional Weather Roundup
Issued by NWS

Home | Current Version | Previous Version | Graphics & Text | Print | Product List | Glossary On
Versions: 1 2 3 4 5 6 7 8 9 10 11 12 13 14 15 16 17 18 19 20 21 22 23 24 25 26 27 28 29 30 31 32 33 34 35 36 37 38 39 40 41 42 43 44 45 46 47 48 49 50
000
ASUS45 KABQ 112101
RWRNM
WEATHER ROUNDUP FOR NEW MEXICO
NATIONAL WEATHER SERVICE ALBUQUERQUE NM
300 PM MDT FRI JUL 11 2014

NOTE: "FAIR" MEANS FEW OR NO CLOUDS BELOW 12,000 FEET AGL WITH NO
       SIGNIFICANT WEATHER OR OBSTRUCTIONS TO VISION.

      THIS PRODUCT IS RELEASED AS TWO VERSIONS.  ONE VERSION NEAR
      THE TOP OF THE HOUR CONTAINING PRELIMINARY DATA FROM ALBUQUERQUE
      AND OTHER STATIONS.  A FINAL VERSION WITH ADDITIONAL DATA IS
      ISSUED ABOUT 10 MINUTES AFTER THE HOUR.

NMZ501-503-504-510>518-112200-
NORTHWEST PLATEAU/NORTHCENTRAL MOUNTAINS

CITY           SKY/WX    TMP DP  RH WIND       PRES   REMARKS
FARMINGTON     SUNNY     90  44  20 W12       30.12F
LOS ALAMOS     CLOUDY    81  47  30 W13G20    30.26S
SANTA FE       CLOUDY    87  47  24 W7        30.17F
TAOS             N/A    N/A N/A N/A MISG        N/A
ANGEL FIRE     CLOUDY    64  54  70 W9        30.37S

$$
NMZ402-403-502-505>509-112200-
WESTCENTRAL MOUNTAINS/SOUTHWEST MOUNTAINS

CITY           SKY/WX    TMP DP  RH WIND       PRES   REMARKS
GALLUP         MOSUNNY   86  47  25 VRB5      30.21F
GRANTS         PTSUNNY   87  45  23 NW5G18    30.22F

$$
NMZ407-409-411-412-112200-
SOUTHERN DESERTS

CITY           SKY/WX    TMP DP  RH WIND       PRES   REMARKS
LORDSBURG      FAIR      88  55  33 NW8       30.05F
DEMING         PTSUNNY   93  52  24 S12       30.02F
LAS CRUCES     MOSUNNY   95  49  21 SE3       30.05F
HOLLOMAN AFB   PTSUNNY   89  53  29 E10       30.04S
T OR C         MOSUNNY   95  47  19 E12G17    30.06F

$$
NMZ519>523-112200-
CENTRAL VALLEYS/CENTRAL HIGHLANDS

CITY           SKY/WX    TMP DP  RH WIND       PRES   REMARKS
ALBUQUERQUE    MOSUNNY   92  48  22 W3        30.11F
DOUBLE EAGLE   MOSUNNY   88  48  25 VRB6      30.15F
MORIARTY ARPT  FAIR      87  46  24 S9        30.18F
CLINES CORNERS MOSUNNY   84  48  28 SE16G24   30.24F
BELEN          FAIR      92  46  20 E7        30.10F
SOCORRO        FAIR      94  43  17 E7        30.07F

$$
NMZ524>526-539-540-112200-
SOUTHCENTRAL MOUNTAINS

CITY           SKY/WX    TMP DP  RH WIND       PRES   REMARKS
RUIDOSO        NOT AVBL

$$
NMZ527>531-112200-
NORTHEAST HIGHLANDS/NORTHEAST PLAINS

CITY           SKY/WX    TMP DP  RH WIND       PRES   REMARKS
LAS VEGAS      MOSUNNY   84  50  30 SE21G30   30.24F
RATON          SUNNY     90  47  22 SW15G22   30.17F
CLAYTON        SUNNY     91  46  21 SE24G30   30.13F

$$
NMZ532>537-112200-
EASTCENTRAL PLAINS

CITY           SKY/WX    TMP DP  RH WIND       PRES   REMARKS
TUCUMCARI      SUNNY     94  48  20 S18       30.07F
CANNON AFB     SUNNY     86  56  35 S8G17     30.13F
CLOVIS AIRPORT NOT AVBL

$$
NMZ028-029-538-112200-
SOUTHEAST PLAINS

CITY           SKY/WX    TMP DP  RH WIND       PRES   REMARKS
ROSWELL        SUNNY     91  52  26 SE12G23   30.07F
ARTESIA        SUNNY     90  52  27 SE16G22   30.06F
CARLSBAD       SUNNY     92  54  27 SE12G23   30.04F
HOBBS          PTSUNNY   84  55  37 SE15G22   30.11F


$$


USA.gov is the U.S. government's official web portal to all federal, state and local government web resources and services.